Location: Spondin
(51.8528°N, 111.6118°W)
Time: 17:13:49
(UTC+00:00)

Vanguard 2 Rocket - Pass Details

Date: 31 May 2022
Orbit: 553 x 3323 km, 32.9° (Epoch: 02 July)

Event Time Altitude Azimuth Distance (km) Brightness Sun altitude
Rises 01:25:19 0° 270° (W) 6,739 12.9 16.9°
Reaches altitude 10° 01:32:57 10° 252° (WSW) 5,160 11.8 15.7°
Maximum altitude 01:39:32 15° 224° (SW) 4,155 10.7 14.8°
Drops below altitude 10° 01:44:51 10° 195° (SSW) 3,975 10.2 14.0°
Sets 01:49:23 0° 172° (S) 4,431 10.2 13.3°
